Location: Newark
(39.9581°N, 97.2014°W)
Time: 13:07:14
(UTC+00:00)

Transit 4A - All Passes

Search period start: 17 February 2020 00:00
Search period end: 27 February 2020 00:00
Orbit: 872 x 973 km, 66.8° (Epoch: 16 February)

Date Brightness Start Highest point End Pass type
(mag) Time Alt. Az. Time Alt. Az. Time Alt. Az.
17 Feb - 05:58:33 10° SE 06:01:19 13° ESE 06:04:03 10° ENE night (unlit)
17 Feb - 07:40:52 10° SSW 07:46:52 84° WNW 07:52:46 10° NNE night (unlit)
17 Feb - 09:30:28 10° W 09:34:04 16° NW 09:37:40 10° N visible
17 Feb - 14:59:16 10° N 15:03:01 17° NE 15:06:48 10° E daylight
17 Feb - 16:44:17 10° NNW 16:50:10 90° N 16:56:07 10° SSE daylight
17 Feb - 18:33:26 10° W 18:35:39 12° WSW 18:37:52 10° SW daylight
18 Feb - 06:05:59 10° SSE 06:10:22 21° ESE 06:14:41 10° ENE night (unlit)
18 Feb - 07:50:22 10° SW 07:56:14 57° WNW 08:02:01 10° NNE night (unlit)
18 Feb - 09:41:48 10° WNW 09:43:52 12° NW 09:45:56 10° NNW visible
18 Feb - 15:08:03 10° N 15:12:42 24° NE 15:17:23 10° E daylight
18 Feb - 16:53:41 10° NW 16:59:26 61° WSW 17:05:17 10° SSE daylight
19 Feb - 06:14:13 10° S 06:19:28 33° ESE 06:24:39 10° NE night (unlit)
19 Feb - 08:00:09 10° WSW 08:05:41 39° NW 08:11:10 10° NNE visible
19 Feb - 15:17:00 10° NNW 15:22:17 33° NE 15:27:35 10° ESE daylight
19 Feb - 17:03:14 10° NW 17:08:39 40° WSW 17:14:08 10° S daylight
20 Feb - 06:22:54 10° S 06:28:39 50° ESE 06:34:17 10° NE night (unlit)
20 Feb - 08:10:13 10° WSW 08:15:13 28° NW 08:20:11 10° N visible
20 Feb - 13:43:42 10° NNE 13:43:56 10° NNE 13:44:09 10° NE daylight
20 Feb - 15:26:06 10° NNW 15:31:46 48° NE 15:37:29 10° SE daylight
20 Feb - 17:13:02 10° NW 17:17:47 26° WSW 17:22:36 10° SSW daylight
21 Feb - 06:31:57 10° SSW 06:37:54 76° ESE 06:43:46 10° NNE night (unlit)
21 Feb - 08:20:36 10° W 08:24:51 20° NW 08:29:04 10° N visible
21 Feb - 13:50:47 10° N 13:53:46 14° NE 13:56:45 10° ENE daylight
21 Feb - 15:35:19 10° NNW 15:41:10 71° ENE 15:47:06 10° SE daylight
21 Feb - 17:23:16 10° WNW 17:26:52 17° WSW 17:30:29 10° SW daylight
22 Feb - 04:58:05 10° SE 05:01:33 16° ESE 05:05:00 10° ENE night (unlit)
22 Feb - 06:41:15 10° SW 06:47:13 74° WNW 06:53:05 10° NNE night (unlit)
22 Feb - 08:31:27 10° WNW 08:34:35 14° NW 08:37:42 10° N visible
22 Feb - 13:59:22 10° N 14:03:30 19° NE 14:07:39 10° E daylight
22 Feb - 15:44:37 10° NNW 15:50:30 79° WSW 15:56:27 10° SSE daylight
23 Feb - 05:05:53 10° SSE 05:10:37 25° ESE 05:15:18 10° NE night (unlit)
23 Feb - 06:50:52 10° SW 06:56:36 50° NW 07:02:18 10° NNE night (unlit)
23 Feb - 08:43:26 10° NW 08:44:25 10° NW 08:45:23 10° NNW visible
23 Feb - 14:08:14 10° N 14:13:08 27° NE 14:18:05 10° ESE daylight
23 Feb - 15:54:05 10° NW 15:59:45 52° WSW 16:05:30 10° S daylight
24 Feb - 05:14:18 10° S 05:19:45 38° ESE 05:25:07 10° NE night (unlit)
24 Feb - 07:00:44 10° WSW 07:06:05 34° NW 07:11:23 10° NNE night (unlit)
24 Feb - 14:17:15 10° NNW 14:22:41 38° NE 14:28:10 10° ESE daylight
24 Feb - 16:03:42 10° NW 16:08:56 34° WSW 16:14:13 10° S daylight
25 Feb - 05:23:08 10° SSW 05:28:57 58° ESE 05:34:42 10° NE night (unlit)
25 Feb - 07:10:54 10° W 07:15:39 25° NW 07:20:23 10° N night (unlit)
25 Feb - 12:42:38 10° NNE 12:44:28 11° NE 12:46:18 10° NE visible
25 Feb - 14:26:23 10° NNW 14:32:08 55° ENE 14:37:59 10° SE daylight
25 Feb - 16:13:37 10° WNW 16:18:03 22° WSW 16:22:32 10° SSW daylight
26 Feb - 03:50:52 10° ESE 03:52:46 12° ESE 03:54:39 10° E night (unlit)
26 Feb - 05:32:16 10° SSW 05:38:13 87° ESE 05:44:06 10° NNE night (unlit)
26 Feb - 07:21:26 10° W 07:25:19 18° NW 07:29:11 10° N night (unlit)
26 Feb - 12:50:48 10° N 12:54:16 16° NE 12:57:45 10° ENE daylight
26 Feb - 14:35:38 10° NNW 14:41:31 81° ENE 14:47:29 10° SSE daylight
26 Feb - 16:24:09 10° WNW 16:27:06 14° WSW 16:30:04 10° SW daylight
